RH
54 80 81 80 85 86 87 87 76 66 51 45 41 37 35 27 31 18 28 41 42 41 42 34 17 33 35 39 46 60 76 92 76 70 61 48 53 44 41 49 49 58 70 72 74
35 62 79 77 83 82 78 65 44 51 45 44 39 36 36 35 35 27 22 36 33 35 32 21 28 39 50 44 50 60 82 69 54 54 57 50 52 53 55 59 60 58 52 73 71
25 44 67 64 72 74 57 35 37 41 37 34 32 28 37 35 30 19 25 28 34 39 24 20 33 41 51 52 50 59 78 60 51 50 54 58 61 52 61 68 59 61 55 76 74
17 31 43 54 44 24 25 25 31 34 34 27 26 25 36 26 10 14 26 26 32 23 19 32 42 54 61 63 54 68 61 58 60 52 56 63 55 61 58 55 47 55 59 77 77
12 11 20 20 26 19 22 22 24 25 26 28 28 33 28 16 16 14 15 18 23 19 21 27 48 57 64 66 70 78 67 58 58 59 59 56 68 70 64 60 52 52 66 83 78
11 10 16 14 15 20 23 22 21 22 22 21 24 33 13 16 14 16 20 20 22 23 21 26 40 47 63 70 75 65 71 71 62 54 56 70 75 88 85 76 64 56 56 78 76
11 11 11 12 15 21 21 19 19 19 19 20 24 31 15 13 14 16 22 20 22 25 23 25 41 50 60 72 65 71 77 59 51 51 57 61 87 97 86 73 82 73 56 85 78
11 10 13 11 19 22 22 18 20 18 17 20 25 31 20 13 14 16 20 17 23 27 24 34 42 51 60 58 56 68 65 80 55 56 50 67 90 89 81 84 83 83 84 76 77
14 12 13 11 22 21 19 15 18 20 19 20 18 19 11 13 16 18 28 27 25 34 33 38 37 52 51 76 73 80 91 84 76 55 63 84 97 96 76 87 87 84 80 81 87
14 13 15 12 22 18 23 15 15 16 14 18 15 11 12 19 17 22 29 25 29 27 42 39 49 51 57 72 97 88 87 81 88 65 75 78 91 87 82 95 97 89 88 91 86
15 12 13 15 22 18 28 15 24 18 16 18 18 15 17 17 16 24 33 29 27 35 45 45 59 66 59 58 68 75 81 87 77 60 81 88 85 95 94 85 92 95 95 92 85
17 12 13 16 24 19 23 48 62 30 23 18 16 18 18 20 26 26 34 39 41 49 48 50 57 47 51 55 66 72 80 78 69 58 68 88 95 96 90 97 98 97 94 93 83
16 13 15 21 25 24 40 63 62 49 36 20 19 20 20 20 28 33 43 48 54 60 66 52 42 45 51 60 69 70 76 80 84 68 80 96 93 82 89 80 72 77 89 92 84
15 15 16 22 24 34 48 56 55 46 64 23 21 20 21 24 22 29 39 50 54 64 68 52 43 54 57 53 62 90 62 72 85 84 97 83 97 83 85 84 65 74 86 87 83
14 18 20 22 22 29 41 53 45 51 47 24 24 21 24 33 37 29 38 52 68 64 50 44 57 61 60 55 56 72 62 79 82 90 91 84 92 80 63 77 78 75 79 83 84
16 18 16 20 19 38 50 49 48 68 37 24 27 38 28 36 42 48 54 52 55 52 54 56 51 51 49 52 55 57 73 62 75 96 95 96 90 83 93 95 83 79 82 86 90
20 20 13 19 26 43 47 53 67 58 22 24 31 40 39 44 45 56 77 85 96 67 97 69 47 47 48 56 56 66 83 88 84 93 98 83 79 95 92 88 96 95 92 94 94
25 29 22 30 39 49 49 69 32 32 31 34 39 33 38 46 48 57 63 87 79 90 96 97 54 59 49 64 74 80 85 97 95 100 96 74 96 89 62 65 76 80 94 84 85
30 36 27 37 43 49 65 60 55 28 29 33 32 25 26 43 55 58 72 90 77 95 97 96 69 53 50 64 64 72 90 84 97 93 97 96 81 91 57 68 73 79 84 86 86
39 42 35 37 51 45 78 50 42 37 40 37 18 41 23 45 55 68 75 66 84 81 78 94 92 52 55 57 58 64 62 88 93 96 98 88 96 92 87 89 82 86 90 88 86
50 59 48 45 46 65 71 59 44 38 36 38 42 46 41 60 61 70 71 57 78 83 81 86 91 65 68 88 88 78 90 88 92 96 98 99 94 96 95 94 94 90 91 93 92
58 84 54 49 71 91 80 44 37 41 39 43 43 44 40 49 76 78 70 67 72 75 86 84 88 100 77 66 61 66 80 91 94 90 97 96 87 96 84 86 95 90 92 90 94
88 82 55 45 74 80 49 49 40 40 39 43 43 43 44 52 43 55 50 64 71 77 78 82 92 84 62 65 60 88 72 81 93 97 98 98 88 70 69 77 87 94 93 88 91
93 89 83 87 87 59 54 45 53 42 42 40 45 47 52 55 56 50 54 59 67 70 65 74 96 74 83 73 88 98 89 85 90 95 96 95 93 68 77 85 84 87 92 91 92
92 87 66 87 80 66 59 50 51 47 42 41 43 41 49 60 77 75 61 57 66 66 71 82 92 99 90 83 88 92 97 94 99 93 94 88 100 84 85 91 91 95 93 90 88
94 92 86 83 61 72 66 62 42 48 49 45 51 47 46 55 46 52 74 70 80 73 94 88 89 91 94 87 82 88 83 91 95 88 86 93 90 72 78 75 82 93 93 92 90
79 77 82 86 72 74 65 64 47 56 42 40 46 59 55 48 50 51 55 61 64 91 98 97 99 99 86 81 92 91 91 100 95 97 95 97 81 80 85 82 86 94 93 94 93
Wind_Speed
13 13 13 13 13 13 12 9 7 6 6 6 6 7 8 5 4 10 8 19 22 22 20 25 18 13 7 2 2 3 1 4 6 4 6 7 5 11 7 7 8 7 8 2 12
13 14 13 14 13 13 11 8 6 6 6 6 6 8 11 6 2 4 16 22 28 29 19 14 8 10 4 3 1 2 2 6 6 4 13 17 13 14 4 9 8 9 11 2 8
13 14 14 15 13 13 10 7 5 5 6 6 7 10 10 4 1 4 19 30 31 21 16 9 4 1 2 2 2 2 4 4 14 14 12 16 21 15 8 13 14 7 4 3 4
13 15 15 15 13 12 8 4 4 6 7 6 7 10 4 3 4 12 24 35 28 14 5 4 4 2 3 4 2 3 8 8 9 10 13 14 10 9 10 21 12 11 4 2 6
13 15 15 16 13 12 8 3 2 4 6 7 9 7 3 6 3 24 32 36 15 8 5 3 4 3 4 4 5 3 5 9 13 17 12 9 8 8 10 18 12 11 7 6 2
12 14 14 16 12 12 8 4 3 3 2 6 10 4 3 6 15 25 36 22 12 6 3 2 1 1 3 3 1 4 9 15 8 10 5 6 9 8 23 26 11 8 8 9 6
12 14 13 15 11 11 6 3 5 4 5 5 7 3 4 2 15 23 32 11 11 7 2 2 2 5 6 7 2 5 6 9 4 8 5 9 15 18 23 22 23 12 2 7 4
12 14 13 15 11 12 7 2 4 7 2 3 4 2 1 5 13 28 31 18 14 5 1 6 2 3 4 8 7 6 4 7 9 8 8 5 8 22 22 23 24 22 17 1 4
12 13 13 14 11 15 7 2 5 5 4 5 2 2 4 8 22 23 28 12 10 10 5 4 5 3 6 5 5 6 5 5 8 9 8 11 8 16 22 22 22 20 18 17 15
11 14 14 13 10 15 5 5 8 3 3 2 5 3 6 7 19 30 31 14 5 5 4 7 5 3 3 7 5 9 5 5 6 7 11 12 16 16 19 20 17 19 19 17 17
11 13 13 12 9 13 2 3 4 5 13 4 2 4 5 17 4 30 30 10 7 9 5 5 8 9 9 6 6 7 3 6 6 2 7 13 16 17 17 22 23 21 19 18 17
11 13 12 13 5 11 2 5 2 3 5 3 2 1 4 8 6 23 27 7 7 5 7 6 4 6 8 9 7 6 4 6 10 3 2 8 19 11 17 17 17 17 19 20 22
10 13 11 10 3 5 9 6 5 2 5 2 2 3 4 5 3 11 11 5 7 6 5 4 4 10 9 8 18 11 3 9 8 9 2 3 4 24 19 13 17 17 17 20 20
8 10 10 5 1 3 3 4 2 1 4 7 5 5 7 4 4 6 13 2 6 5 4 2 6 8 13 11 11 6 3 15 10 3 3 8 0 19 18 18 23 24 24 22 23
7 7 6 5 3 3 2 3 2 1 3 4 5 4 6 9 6 10 14 6 4 6 4 3 8 7 13 12 9 8 20 8 3 2 3 9 4 7 17 24 29 26 25 22 21
4 5 4 3 3 4 3 4 0 5 4 2 4 7 5 7 7 7 8 8 1 3 5 3 6 2 4 15 4 14 4 2 2 2 4 4 2 6 14 19 20 21 22 23 22
0 2 4 3 2 4 5 2 4 4 1 3 3 4 3 6 7 8 6 9 5 7 9 8 6 6 7 8 5 18 6 4 6 5 1 2 6 2 11 17 14 19 21 21 20
2 1 5 6 4 5 2 5 3 1 0 2 1 0 5 7 4 9 4 7 7 6 4 6 8 9 11 5 6 6 4 4 1 3 4 5 4 2 13 14 15 16 17 19 21
3 3 2 3 3 3 4 3 4 2 2 4 1 4 3 3 2 4 6 3 3 5 5 7 5 4 3 4 6 7 5 3 1 3 2 4 4 3 16 18 19 20 21 23 23
4 3 3 2 1 3 4 3 2 0 3 1 3 0 2 5 4 6 4 3 5 5 2 1 6 2 4 5 7 5 4 5 3 4 4 3 2 4 17 24 22 22 22 22 21
5 3 2 1 1 4 3 4 3 0 1 3 3 3 3 2 3 2 2 2 3 4 4 1 3 7 3 6 4 5 5 4 1 1 2 3 3 2 8 18 19 20 18 20 19
5 3 2 3 3 1 2 4 4 3 2 2 3 3 4 2 3 1 2 4 4 2 4 3 1 5 5 2 2 2 3 3 3 6 0 1 3 2 8 13 13 17 15 20 18
4 3 2 4 1 1 1 2 2 3 3 2 2 1 2 4 3 2 1 2 5 3 5 2 1 4 8 5 5 5 5 3 3 0 1 2 3 3 14 17 15 15 15 18 17
4 3 2 3 1 5 5 4 3 2 3 3 3 3 4 3 3 1 1 2 2 4 7 2 1 5 5 6 2 4 5 6 1 2 3 3 9 11 18 22 20 18 16 18 16
2 2 2 2 1 3 3 5 4 5 1 2 1 2 5 3 3 2 1 3 2 7 3 4 1 1 5 5 2 3 3 5 3 2 2 5 4 7 16 18 16 14 14 18 19
5 5 1 2 4 5 1 6 7 4 6 4 4 6 4 5 6 6 5 3 1 4 3 4 1 1 3 2 5 5 3 4 1 3 3 6 6 6 15 14 15 15 16 17 19
5 4 4 4 3 3 5 7 7 8 1 0 7 5 4 3 6 3 3 5 4 5 1 3 2 2 3 5 4 4 3 2 4 2 2 2 5 13 16 17 16 11 17 18 18
Wind_Direction
3 3 3 8 5 7 9 13 21 26 20 25 25 18 4 331 267 8 23 345 342 333 322 324 334 337 330 54 93 101 73 265 253 255 256 291 245 266 250 254 259 245 245 305 342
359 1 359 6 3 5 11 17 23 10 8 14 9 359 347 333 319 6 349 343 330 325 321 336 306 347 0 5 28 136 179 244 237 249 288 291 279 279 255 265 266 268 269 319 5
357 357 360 4 3 3 10 22 24 11 357 352 348 346 352 357 46 318 341 344 335 328 321 301 267 12 324 1 229 196 238 249 282 277 283 287 285 269 250 263 242 255 271 285 34
355 356 358 360 0 4 10 21 24 12 358 357 346 340 353 11 24 332 329 335 340 347 22 49 27 31 355 329 297 294 262 263 280 294 301 286 285 291 242 262 269 233 189 165 2
353 355 356 358 357 2 1 3 8 22 32 28 3 360 343 46 308 348 342 334 352 17 45 49 54 25 338 300 321 214 270 302 286 293 287 278 277 282 293 313 267 254 183 170 45
349 351 355 355 358 2 350 357 320 303 352 7 6 7 27 53 340 345 344 348 13 8 9 61 13 294 282 267 244 287 294 288 298 307 284 310 359 26 343 344 303 260 232 177 156
342 347 354 355 356 2 348 42 43 10 284 312 348 29 64 236 349 354 356 0 6 347 4 14 37 45 323 315 311 287 321 316 287 337 308 343 23 9 358 355 11 354 146 165 129
338 344 351 355 349 354 331 274 340 342 331 346 354 74 149 341 345 353 356 3 7 8 101 13 84 88 33 303 345 352 31 354 299 338 332 357 12 13 7 7 11 11 20 86 27
335 342 346 352 343 349 332 239 339 344 93 35 15 47 353 344 344 348 356 340 350 52 58 62 72 71 0 2 354 13 304 322 314 352 350 39 358 15 13 12 10 5 11 11 359
332 339 342 349 340 352 359 163 59 56 20 13 18 45 15 317 328 347 0 5 5 340 22 36 47 43 17 20 342 308 331 308 278 332 15 55 31 18 16 16 5 8 7 354 351
330 337 338 343 334 355 53 137 11 354 39 83 144 114 279 327 23 357 356 350 14 56 21 359 40 2 312 293 259 266 247 270 268 290 47 70 36 14 7 14 9 7 3 356 356
328 335 337 340 334 3 58 78 102 161 91 30 23 298 327 337 357 1 6 51 32 29 343 22 27 324 307 343 330 300 295 311 303 282 345 76 49 11 17 23 4 4 0 358 358
328 332 335 346 360 22 74 96 108 133 98 31 34 11 327 356 47 343 15 355 45 29 7 89 299 331 353 345 354 330 284 335 284 308 16 252 24 13 3 11 7 11 8 7 357
329 336 338 347 40 48 68 123 128 49 74 343 346 5 356 335 52 17 6 67 25 19 344 345 327 354 335 5 5 302 335 324 294 278 24 7 343 19 355 357 8 7 3 357 352
327 351 349 8 103 71 127 144 146 32 16 359 351 330 346 74 312 355 15 28 32 338 25 300 327 344 346 338 334 259 319 298 268 278 62 1 71 357 2 1 357 356 356 352 349
332 2 339 330 46 100 132 129 93 46 259 28 11 357 19 19 5 314 18 26 89 10 5 302 283 309 312 307 281 320 3 305 13 49 42 327 73 357 9 344 342 342 347 350 348
300 54 34 22 61 122 133 59 30 128 75 11 346 6 91 5 0 18 33 29 43 16 14 325 316 319 353 346 323 354 39 356 5 15 229 35 58 206 358 359 343 338 344 346 342
148 110 56 71 105 134 86 52 96 240 119 197 74 56 66 8 27 356 34 19 26 55 47 20 345 10 348 23 300 341 49 108 196 340 294 3 2 154 30 1 346 349 344 344 353
123 87 55 46 125 148 74 70 212 202 145 148 99 67 38 48 73 44 25 5 20 14 86 1 286 326 20 329 5 324 38 292 262 219 334 322 335 88 6 357 356 351 350 353 355
95 73 58 25 141 93 78 172 152 231 133 89 116 158 21 351 52 48 6 314 343 30 53 274 299 311 311 13 1 75 315 26 6 23 349 330 27 286 341 353 349 348 352 350 349
113 68 30 116 97 51 158 163 152 168 116 68 152 117 99 101 90 69 270 312 4 348 69 38 121 296 50 20 358 345 11 11 226 119 142 308 310 266 356 348 339 341 343 348 345
132 98 14 147 34 35 99 141 136 162 77 83 105 115 129 118 102 111 265 195 358 56 19 1 144 280 225 305 272 71 357 33 103 316 72 180 289 276 11 351 343 337 336 342 344
108 109 36 134 194 104 169 56 89 148 145 167 110 108 117 117 79 175 170 121 22 36 18 263 339 355 348 359 18 33 356 327 248 68 45 85 299 319 354 347 348 340 338 342 340
108 113 337 57 83 139 157 170 129 22 115 112 121 101 100 105 70 199 177 82 338 7 35 117 96 158 192 209 149 348 340 332 41 66 296 240 310 329 342 342 343 344 341 339 342
83 159 248 184 148 141 93 142 143 160 79 152 102 183 143 106 36 205 111 6 39 6 57 95 140 167 276 266 184 227 259 334 55 179 178 292 306 300 336 328 331 335 335 341 344
132 139 68 116 129 127 180 206 166 154 143 219 174 137 132 127 165 214 141 155 206 6 63 354 233 91 314 236 1 253 282 341 332 307 266 297 291 347 324 322 336 338 346 344 342
115 80 112 155 158 136 202 172 184 134 358 185 145 118 126 153 128 114 116 132 144 141 71 76 95 43 285 352 350 1 253 272 275 228 218 322 266 326 325 330 334 341 351 340 336